DELTA 1 DEB, 10755

Orbit data source: Space-Track

DELTA 1 DEB, 10755 is space debris in SSO originally from a launch on Thu, 29 Jul 1976 UTC launched from the Air Force Western Test Range (AFWTR). Debris objects in space refer to the collection of defunct objects orbiting the Earth. Examples of debris include non-operational satellites, rocket bodies, and fragments generated from explosions, collisions, or faulty payload assembly.

Loading next visibility...
Identifier
10755, 1976-077BC
Orbit
SSO
Country
Flag of USUS
Related business
Manufacturer
Unknown
Mission
Spacecraft
Bus & Motor
Unknown
Mass
Unknown
Launch date (UTC)
1976-07-29 (50 years ago)
Launch vehicle
Unknown
Launch site
Air Force Western Test Range (AFWTR)
Object type
Payload
Rocket body
Debris
Shape & HBR
Unknown shape, 0.2 m
Radar Cross Section
Small (<0.1 m²)

Expand to show TLE details & history
Last TLE update: 10 hours ago

TLE from 10 hours ago
0 DELTA 1 DEB
1 10755U 76077BC  26118.87006259 -.00000015  00000-0  27302-3 0  9994
2 10755 102.5771  96.5952 0081560 107.2398 311.9137 12.26081810227071
Epoch: 2026-04-28T20:52Z
TLE epoch observation values (Epoch: 2026-04-28T20:52:53.407Z)
Latitude
56.37445°
Longitude
-92.9686°
Altitude
1,532.338 km
Speed
7.124 km/s
True Right ascension
05h 08m 22s
True Declination
56° 13' 52"
Sunlit
Object was in daylight at epoch
Visualization orbit readout
Latitude
Unknown
Longitude
Unknown
Altitude
Unknown
Speed
Unknown
Apparent Right ascension
Unknown
Apparent Declination
Unknown
Sunlit
N/A
Visualization observer readout
Local Sidereal Time
14:44:32
Azimuth
Unknown
Elevation
Unknown
Doppler factor
Unknown
Orbital elements
Apogee altitude
1,628.563 km
Perigee altitude
1,499.015 km
Semi-major axis
7,941.926 km
Eccentricity
0.00816
Inclination
102.5771°
RAAN
96.5952°
Arg. of periapsis
107.2398°
True anomaly
311.21346°
Mean anomaly
311.9137°
Eccentric anomaly
311.56406°
Mean motion
3.06658 °/min
Orbital period
117.39 mins
BSTAR
0.00027302
Loading maneuver chart data...
Computing Atmospheric mass density...
Loading historical data...
Loading historical data...
Loading historical data...
Loading historical data...
Loading historical data...
Loading historical data...
Loading historical data...

Documentation

Showing up to 5 results
|